Location: Melizzano
(41.1500°N, 14.5000°E)
Time: 19:51:13
(UTC+00:00)

Okean 2 Rocket - Visible Passes

Search period start: 24 September 2021 00:00
Search period end: 04 October 2021 00:00
Orbit: 616 x 642 km, 82.5° (Epoch: 23 September)

Date Brightness Start Highest point End Pass type
(mag) Time Alt. Az. Time Alt. Az. Time Alt. Az.
24 Sep 4.7 18:41:08 20° NE 18:41:08 20° NE 18:42:44 10° NNE visible
24 Sep 5.8 20:18:26 17° NW 20:18:26 17° NW 20:20:09 10° NNW visible
25 Sep 3.9 19:00:40 38° NNE 19:00:40 38° NNE 19:03:29 10° NNE visible
25 Sep 6.3 20:37:57 10° WNW 20:37:57 10° WNW 20:37:57 10° WNW visible
26 Sep 4.9 17:42:36 12° ENE 17:42:36 12° ENE 17:43:50 10° ENE visible
26 Sep 3.7 19:19:52 53° WNW 19:19:52 53° WNW 19:23:53 10° N visible
27 Sep 4.1 18:01:07 22° ESE 18:02:11 24° E 18:05:45 10° NE visible
27 Sep 5.0 19:38:18 20° WSW 19:40:08 27° WNW 19:43:54 10° NNW visible
28 Sep 3.2 18:18:15 10° SSE 18:22:29 49° E 18:26:44 10° NNE visible
28 Sep 6.0 19:58:30 10° WSW 20:00:52 14° WNW 20:03:15 10° NW visible
29 Sep 3.1 18:38:30 10° S 18:42:52 78° W 18:47:18 10° N visible
30 Sep 4.5 17:22:45 10° SE 17:25:40 18° E 17:28:36 10° NE visible
30 Sep 4.5 18:59:20 10° SW 19:03:24 37° WNW 19:07:31 10° N visible
01 Oct 3.6 17:41:55 10° SSE 17:45:53 35° E 17:49:54 10° NNE visible
01 Oct 5.7 19:20:52 10° WSW 19:24:03 20° WNW 19:27:17 10° NNW visible
02 Oct 6.8 03:54:31 10° ENE 03:55:06 10° ENE 03:55:42 10° ENE visible
02 Oct 2.9 18:01:52 10° S 18:06:14 73° E 18:10:38 10° NNE visible
03 Oct 6.1 04:12:35 10° NNE 04:15:55 20° ENE 04:19:13 10° ESE visible
03 Oct 3.8 18:22:25 10° SSW 18:26:42 53° W 18:31:02 10° N visible
